EW7038 Weather Reports


time (UTC)temp
C
wind
direction
speed
KPH
gust
KPH
rain 1hr
cm
rain 24hr
cm
rain mn
cm
humidity
%
barometer
mb
20260507150305 11 238 12.9 38.6 0.00 0.05 0.00 62 1018.3
20260507145804 11 227 9.7 35.4 0.00 0.05 0.00 62 1018.4
20260507145307 11 281 14.5 33.8 0.00 0.05 0.00 62 1018.4
20260507144804 11 201 9.7 27.4 0.00 0.05 0.00 64 1018.4
20260507143805 11 279 9.7 27.4 0.00 0.05 0.00 64 1018.4
20260507143304 11 253 8.0 19.3 0.00 0.05 0.00 64 1018.2
20260507142804 11 268 8.0 22.5 0.00 0.05 0.00 64 1018.2
20260507142306 11 266 9.7 22.5 0.00 0.05 0.00 64 1018.0
20260507140804 11 235 9.7 27.4 0.00 0.05 0.00 65 1018.2
20260507140304 11 216 16.1 32.2 0.00 0.05 0.00 64 1017.9
20260507135805 11 263 19.3 38.6 0.00 0.05 0.00 64 1017.8
20260507135306 11 252 19.3 37.0 0.00 0.05 0.00 63 1017.8
20260507134804 11 262 19.3 40.2 0.00 0.05 0.00 64 1017.7
20260507134304 11 284 19.3 35.4 0.00 0.05 0.00 63 1017.7
20260507133304 11 262 17.7 35.4 0.00 0.05 0.00 64 1017.7
20260507132804 11 245 11.3 32.2 0.00 0.05 0.00 65 1017.8
20260507132307 11 271 11.3 29.0 0.00 0.05 0.00 64 1017.8
20260507131805 11 282 9.7 27.4 0.00 0.05 0.00 65 1017.7
20260507131303 11 267 14.5 29.0 0.00 0.05 0.00 65 1017.9
20260507130805 11 278 14.5 33.8 0.00 0.05 0.00 64 1017.7
20260507130304 11 249 11.3 32.2 0.00 0.05 0.00 64 1017.9
20260507125804 11 270 14.5 37.0 0.00 0.05 0.00 64 1017.7
20260507125306 11 269 12.9 24.1 0.00 0.05 0.00 64 1017.7
20260507124804 11 252 16.1 32.2 0.00 0.05 0.00 63 1017.6
20260507124305 12 272 14.5 32.2 0.00 0.05 0.00 64 1017.7
20260507123804 12 286 14.5 33.8 0.00 0.05 0.00 64 1017.6
20260507123304 12 263 11.3 32.2 0.00 0.05 0.00 64 1017.6
20260507122805 12 268 9.7 19.3 0.00 0.05 0.00 64 1017.6
20260507122307 12 273 11.3 25.7 0.00 0.05 0.00 64 1017.6
20260507121804 12 263 8.0 33.8 0.00 0.05 0.00 64 1017.7
20260507120804 12 264 9.7 27.4 0.00 0.05 0.00 64 1017.6
20260507120304 12 273 11.3 27.4 0.00 0.05 0.00 64 1017.5
20260507115803 12 296 11.3 29.0 0.00 0.05 0.00 64 1017.5
20260507115307 12 269 16.1 37.0 0.00 0.05 0.00 63 1017.6
20260507114802 12 279 9.7 24.1 0.00 0.05 0.00 64 1017.5
20260507114302 12 291 8.0 24.1 0.00 0.05 0.00 64 1017.5
20260507113802 12 288 11.3 29.0 0.00 0.05 0.00 63 1017.4
20260507113302 12 259 17.7 32.2 0.00 0.05 0.00 62 1017.4
20260507112306 12 276 12.9 38.6 0.00 0.05 0.00 64 1017.3
20260507111802 12 226 19.3 48.3 0.00 0.05 0.00 63 1017.3
20260507111302 12 230 14.5 33.8 0.00 0.05 0.00 63 1017.2
20260507110802 12 215 12.9 25.7 0.00 0.05 0.00 62 1017.0
20260507105802 12 303 11.3 33.8 0.00 0.05 0.00 64 1017.0
20260507105306 12 302 9.7 37.0 0.00 0.05 0.00 64 1016.9
20260507104802 12 193 9.7 35.4 0.00 0.05 0.00 64 1017.0
20260507104302 12 308 8.0 32.2 0.00 0.05 0.00 64 1016.9
20260507103802 12 247 19.3 45.1 0.00 0.05 0.00 61 1016.6
20260507103302 12 303 14.5 27.4 0.00 0.05 0.00 62 1016.5
20260507102802 12 266 14.5 25.7 0.00 0.05 0.00 63 1016.8
20260507102306 12 275 17.7 32.2 0.00 0.05 0.00 63 1016.8
20260507101802 12 271 19.3 32.2 0.00 0.05 0.00 62 1016.9
20260507101302 12 292 11.3 25.7 0.00 0.05 0.00 63 1016.9
20260507100802 12 244 14.5 33.8 0.00 0.05 0.00 62 1017.0
20260507100302 12 273 14.5 41.8 0.00 0.05 0.00 62 1016.8
20260507095802 13 261 22.5 37.0 0.00 0.05 0.00 60 1016.7
20260507095305 13 270 19.3 38.6 0.00 0.05 0.00 62 1016.7
20260507094802 13 278 16.1 37.0 0.00 0.05 0.00 61 1016.6
20260507094302 13 285 19.3 41.8 0.00 0.05 0.00 62 1016.7
20260507093802 13 250 17.7 35.4 0.00 0.05 0.00 61 1016.8
20260507092306 13 241 17.7 29.0 0.00 0.05 0.00 60 1016.7
20260507091802 13 288 11.3 32.2 0.00 0.05 0.00 62 1016.8
20260507091301 13 257 16.1 35.4 0.00 0.05 0.00 61 1016.8
20260507090802 13 232 16.1 41.8 0.00 0.05 0.00 61 1017.0
20260507090302 13 290 12.9 40.2 0.00 0.05 0.00 62 1016.9
20260507085802 13 274 11.3 35.4 0.00 0.05 0.00 61 1016.8
20260507085301 13 278 14.5 40.2 0.00 0.05 0.00 61 1016.8
20260507084802 13 247 14.5 32.2 0.00 0.05 0.00 61 1016.9
20260507084302 13 302 9.7 27.4 0.00 0.05 0.00 62 1017.0
20260507083802 13 286 8.0 27.4 0.00 0.05 0.00 62 1016.9
20260507083302 14 284 16.1 37.0 0.00 0.05 0.00 61 1016.9
20260507082802 13 252 16.1 37.0 0.00 0.05 0.00 60 1017.0
20260507081301 13 261 11.3 32.2 0.00 0.05 0.00 61 1016.8
20260507080802 13 230 14.5 38.6 0.00 0.05 0.00 62 1016.9
20260507080302 13 269 17.7 38.6 0.00 0.05 0.00 62 1016.8
20260507075802 13 275 11.3 33.8 0.00 0.05 0.00 63 1016.9
20260507075306 13 299 9.7 20.9 0.00 0.05 0.00 63 1016.9
20260507074802 13 264 16.1 40.2 0.00 0.05 0.00 62 1017.0
20260507074302 13 269 16.1 38.6 0.00 0.05 0.00 62 1017.0
20260507073802 13 283 12.9 25.7 0.00 0.05 0.00 62 1016.9
20260507072802 14 288 19.3 41.8 0.00 0.08 0.00 60 1016.8
20260507072306 14 263 17.7 38.6 0.00 0.08 0.00 61 1016.9
20260507071802 14 273 17.7 38.6 0.00 0.08 0.00 62 1016.9
20260507071302 14 252 19.3 35.4 0.00 0.08 0.00 60 1017.1
20260507070802 14 277 20.9 35.4 0.00 0.08 0.00 61 1017.0
20260507065802 14 275 22.5 45.1 0.00 0.08 0.08 59 1017.1
20260507065305 15 268 20.9 38.6 0.00 0.08 0.08 60 1017.1
20260507064802 15 273 20.9 40.2 0.00 0.08 0.08 59 1017.1
20260507064301 15 268 20.9 37.0 0.00 0.08 0.08 60 1017.2
20260507063302 15 269 17.7 37.0 0.00 0.08 0.08 60 1017.2
20260507062802 15 270 20.9 41.8 0.00 0.08 0.08 60 1017.1
20260507062305 15 260 17.7 37.0 0.00 0.08 0.08 62 1017.3
20260507061802 15 287 14.5 32.2 0.00 0.08 0.08 61 1017.3
20260507060301 15 261 19.3 35.4 0.00 0.08 0.08 61 1017.2
20260507055802 15 269 14.5 40.2 0.00 0.08 0.08 61 1017.2
20260507054802 15 281 17.7 37.0 0.00 0.08 0.08 60 1017.1
20260507054302 15 265 9.7 37.0 0.00 0.08 0.08 61 1017.3
20260507053802 15 260 14.5 37.0 0.00 0.08 0.08 60 1017.5
20260507053302 15 270 14.5 29.0 0.00 0.08 0.08 60 1017.3
20260507052301 16 301 9.7 37.0 0.00 0.08 0.08 60 1017.3
20260507051302 16 264 14.5 40.2 0.00 0.10 0.08 59 1017.3
20260507050802 16 276 14.5 35.4 0.00 0.10 0.08 59 1017.4
20260507050302 16 264 20.9 35.4 0.00 0.10 0.08 58 1017.2
20260507045302 16 255 16.1 38.6 0.00 0.10 0.08 58 1017.4
20260507044802 16 269 19.3 37.0 0.00 0.10 0.08 57 1017.3
20260507043801 16 274 19.3 41.8 0.00 0.10 0.08 58 1017.3
20260507042802 16 241 20.9 38.6 0.00 0.10 0.08 57 1017.2
20260507042302 16 290 14.5 33.8 0.00 0.10 0.08 57 1017.1
20260507041801 17 240 17.7 33.8 0.00 0.10 0.08 57 1017.2
20260507041302 17 231 14.5 29.0 0.00 0.10 0.08 56 1017.1
20260507040802 17 263 20.9 45.1 0.00 0.10 0.08 54 1017.1
20260507035802 17 265 17.7 38.6 0.00 0.10 0.08 57 1016.9
20260507035306 17 262 17.7 33.8 0.00 0.10 0.08 58 1016.9
20260507034802 17 276 16.1 33.8 0.00 0.10 0.08 58 1016.8
20260507033802 17 245 11.3 27.4 0.00 0.10 0.08 58 1016.8
20260507033302 17 259 16.1 37.0 0.00 0.10 0.08 56 1016.8
20260507032802 17 263 17.7 27.4 0.00 0.10 0.08 55 1016.8
20260507032301 17 269 19.3 41.8 0.00 0.10 0.08 53 1016.6
20260507031803 17 279 12.9 29.0 0.00 0.10 0.08 54 1016.6
20260507030802 17 265 14.5 38.6 0.00 0.13 0.08 54 1016.6
20260507030302 17 304 9.7 22.5 0.00 0.13 0.08 54 1016.5
20260507025301 17 283 14.5 38.6 0.00 0.13 0.08 52 1016.4
20260507024802 17 300 20.9 45.1 0.00 0.13 0.08 52 1016.3
20260507024302 18 284 20.9 48.3 0.00 0.13 0.08 52 1016.4
20260507023802 18 269 25.7 57.9 0.00 0.13 0.08 51 1016.3
20260507023302 18 271 22.5 46.7 0.00 0.13 0.08 51 1016.5
20260507022802 18 272 19.3 45.1 0.00 0.13 0.08 51 1016.3
20260507021801 18 267 27.4 48.3 0.00 0.13 0.08 51 1016.4
20260507021302 18 272 24.1 48.3 0.00 0.13 0.08 50 1016.3
20260507020802 18 278 20.9 38.6 0.00 0.13 0.08 50 1016.4
20260507020302 18 279 22.5 45.1 0.00 0.13 0.08 50 1016.3
20260507015305 18 276 22.5 46.7 0.00 0.13 0.08 49 1016.5
20260507014802 18 262 22.5 49.9 0.00 0.13 0.08 48 1016.4
20260507014301 18 269 20.9 53.1 0.00 0.13 0.08 48 1016.5
20260507013802 18 269 20.9 46.7 0.00 0.13 0.08 48 1016.5
20260507013301 18 291 20.9 49.9 0.00 0.13 0.08 48 1016.5
20260507012305 19 286 20.9 38.6 0.00 0.13 0.08 47 1016.6
20260507011802 19 262 17.7 38.6 0.00 0.13 0.08 47 1016.6
20260507010801 19 270 19.3 37.0 0.00 0.13 0.08 47 1016.6
20260507010301 19 258 16.1 33.8 0.00 0.13 0.08 47 1016.5
20260507005305 19 266 17.7 37.0 0.00 0.13 0.08 47 1016.6
20260507003804 19 271 19.3 40.2 0.00 0.13 0.08 47 1016.5
20260507003304 19 267 24.1 41.8 0.00 0.13 0.08 47 1016.5
20260507002804 19 296 19.3 38.6 0.00 0.13 0.08 46 1016.6
20260507002306 19 275 29.0 41.8 0.00 0.13 0.08 48 1016.5
20260507001803 19 266 19.3 35.4 0.00 0.15 0.08 47 1016.5
20260507001304 19 288 16.1 41.8 0.00 0.15 0.08 47 1016.4
20260507000803 19 265 22.5 45.1 0.00 0.15 0.08 47 1016.3
20260507000303 19 276 19.3 48.3 0.00 0.15 0.08 47 1016.3
20260506234803 18 282 20.9 45.1 0.00 0.15 0.08 48 1016.3
20260506234303 18 264 29.0 46.7 0.00 0.15 0.08 48 1016.2
20260506233804 18 270 24.1 45.1 0.00 0.13 0.08 49 1016.3
20260506233304 18 271 22.5 45.1 0.00 0.13 0.08 49 1016.3
20260506232804 18 282 25.7 46.7 0.00 0.13 0.08 49 1016.0
20260506232306 18 254 24.1 48.3 0.00 0.13 0.08 49 1016.3
20260506231804 18 273 27.4 45.1 0.00 0.13 0.08 50 1016.2
20260506231304 18 242 16.1 49.9 0.00 0.13 0.08 50 1016.3
20260506230303 18 247 27.4 49.9 0.00 0.15 0.08 51 1015.9
20260506225803 18 270 22.5 61.2 0.00 0.15 0.08 50 1015.9
20260506224304 18 286 27.4 45.1 0.00 0.13 0.08 50 1016.1
20260506223804 18 280 30.6 53.1 0.00 0.13 0.08 50 1016.1
20260506223304 18 271 24.1 53.1 0.00 0.13 0.08 50 1016.3
20260506222804 18 258 27.4 51.5 0.00 0.13 0.08 49 1016.3
20260506220803 18 278 19.3 48.3 0.00 0.15 0.08 50 1016.2
20260506220304 18 266 29.0 51.5 0.00 0.15 0.08 50 1016.1
20260506215804 18 274 29.0 66.0 0.00 0.15 0.08 49 1016.0
20260506215306 18 290 22.5 49.9 0.00 0.15 0.08 49 1016.0
20260506214803 18 267 27.4 56.3 0.00 0.15 0.08 50 1016.0
20260506214304 18 278 32.2 51.5 0.00 0.13 0.05 50 1016.1
20260506213804 18 261 32.2 51.5 0.00 0.13 0.05 50 1016.2
20260506213304 18 258 29.0 62.8 0.00 0.13 0.05 50 1016.3
20260506212804 18 277 29.0 56.3 0.00 0.13 0.05 50 1016.1
20260506211804 19 283 30.6 57.9 0.00 0.13 0.05 47 1016.2
20260506211304 19 291 17.7 46.7 0.00 0.13 0.05 46 1016.4
20260506210804 19 269 25.7 46.7 0.03 0.13 0.05 47 1016.3
20260506210303 19 278 25.7 57.9 0.03 0.13 0.05 49 1016.2
20260506205803 19 260 25.7 49.9 0.03 0.13 0.05 49 1016.4
20260506204803 18 271 27.4 45.1 0.03 0.13 0.05 47 1016.4
20260506204303 18 285 25.7 46.7 0.03 0.13 0.05 50 1016.4
20260506203803 18 289 25.7 51.5 0.03 0.13 0.05 48 1016.7
20260506202804 18 275 27.4 45.1 0.03 0.13 0.05 50 1016.3
20260506202306 18 289 24.1 56.3 0.03 0.13 0.05 49 1016.3
20260506201804 18 264 32.2 59.5 0.03 0.13 0.05 51 1016.4
20260506201304 18 279 22.5 56.3 0.00 0.13 0.05 50 1016.4
20260506200803 18 272 30.6 51.5 0.00 0.13 0.05 52 1016.4
20260506200304 18 270 27.4 53.1 0.00 0.13 0.05 52 1016.4
20260506195803 18 280 27.4 51.5 0.00 0.13 0.05 50 1016.5
20260506195305 18 282 25.7 51.5 0.00 0.13 0.03 52 1016.5
20260506194804 18 267 20.9 59.5 0.00 0.13 0.03 52 1016.5
20260506194304 18 284 22.5 41.8 0.00 0.13 0.03 52 1016.5
20260506193804 18 284 17.7 49.9 0.00 0.13 0.03 50 1016.6
20260506193304 18 300 22.5 45.1 0.00 0.13 0.03 52 1016.5
20260506192803 18 266 27.4 45.1 0.00 0.13 0.03 53 1016.6
20260506192305 18 284 20.9 57.9 0.00 0.13 0.03 50 1016.8
20260506191803 18 311 25.7 49.9 0.00 0.10 0.03 52 1016.3
20260506191304 18 263 19.3 40.2 0.00 0.10 0.03 52 1016.7
20260506190804 18 278 22.5 40.2 0.00 0.10 0.03 54 1016.6
20260506190303 17 287 22.5 40.2 0.00 0.10 0.03 54 1016.5
20260506185803 17 297 22.5 45.1 0.00 0.13 0.03 54 1016.3
20260506185306 17 289 27.4 46.7 0.00 0.13 0.03 54 1016.4
20260506184304 17 285 27.4 45.1 0.00 0.10 0.03 56 1016.3
20260506183804 17 286 30.6 51.5 0.00 0.10 0.03 56 1016.5
20260506182803 17 295 22.5 48.3 0.00 0.10 0.03 55 1016.5
20260506182306 17 290 19.3 40.2 0.00 0.10 0.03 56 1016.5
20260506181804 17 315 24.1 40.2 0.00 0.10 0.03 58 1016.7
20260506181303 17 288 20.9 38.6 0.00 0.10 0.03 56 1016.3
20260506180804 17 314 16.1 35.4 0.00 0.10 0.03 57 1016.3
20260506180303 16 312 20.9 32.2 0.00 0.10 0.03 57 1016.3
20260506175803 16 304 20.9 37.0 0.00 0.10 0.03 58 1016.5
20260506175306 16 302 30.6 56.3 0.00 0.10 0.03 58 1016.6
20260506174804 16 306 19.3 56.3 0.00 0.10 0.03 59 1016.6
20260506174303 16 263 20.9 53.1 0.00 0.10 0.03 59 1016.8
20260506173304 16 265 19.3 49.9 0.00 0.10 0.03 59 1016.8
20260506172803 16 280 20.9 51.5 0.00 0.10 0.03 60 1016.7
20260506172306 16 265 24.1 40.2 0.00 0.10 0.03 60 1016.8
20260506171304 16 281 25.7 45.1 0.00 0.10 0.03 60 1016.3
20260506170803 16 273 22.5 48.3 0.00 0.10 0.03 60 1016.8
20260506164303 16 272 11.3 24.1 0.00 0.10 0.03 61 1017.1
20260506163304 16 278 17.7 40.2 0.00 0.10 0.03 62 1017.0
20260506154804 15 261 27.4 46.7 0.00 0.10 0.03 61 1017.0
20260506154303 15 266 20.9 45.1 0.00 0.10 0.03 62 1016.9
20260506153804 15 279 24.1 45.1 0.00 0.10 0.03 62 1016.8
20260506153303 15 258 22.5 49.9 0.00 0.10 0.03 62 1016.9
20260506152803 15 277 24.1 41.8 0.00 0.10 0.03 61 1016.9